Regional Weather Roundup
Issued by NWS Goodland, KS

Home | Current Version | Previous Version | Graphics & Text | Print | Product List | Glossary On
Versions: 1 2 3 4 5 6 7 8 9 10 11 12 13 14 15 16 17 18 19 20 21 22 23 24 25 26 27 28 29 30 31 32 33 34 35 36 37 38 39 40 41 42 43 44 45 46 47 48 49 50
343
ASUS43 KGLD 240759
RWRGLD

GOODLAND FORECAST AREA HOURLY WEATHER ROUNDUP
NATIONAL WEATHER SERVICE GOODLAND KS
200 AM MDT TUE OCT 24 2017

...OFFICIAL OBSERVATIONS...

CITY           SKY/WX    TMP DP  RH WIND       PRES   REMARKS
GOODLAND KS    CLEAR     40  21  46 W16       30.43S
HILL CITY KS   CLEAR     47  23  38 NW16G25   30.35R
IMPERIAL NEB   CLEAR     40  22  48 NW14      30.43S
MCCOOK NEB     CLEAR     41  24  51 W15       30.36F
AKRON CO       CLEAR     34  18  52 NW13      30.49F
BURLINGTON CO  CLEAR     38  21  50 NW16      30.48S
LIMON CO       CLOUDY    30  20  66 W8        30.55S
$$

...UNOFFICIAL OBSERVATIONS...

CITY           SKY/WX    TMP DP  RH WIND       PRES   REMARKS
LENORA KS        N/A     41  32  70 NW10        N/A
NORTON KS      CLEAR     43  18  36 W16       30.32F
SHARON SPRINGS   N/A     42  23  46 NW15        N/A
TRENTON NEB      N/A     41  32  70 NW10        N/A
KIT CARSON CO    N/A     40  20  44 MISG        N/A
YUMA CO        FAIR      36  19  51 NW15G21   30.47F
$$




USA.gov is the U.S. government's official web portal to all federal, state and local government web resources and services.